Wind_Speed
10 10 11 10 11 11 11 11 11 12 13 15 17 18 21 25 29 11 2 4 8 13 14 10 5 2 2 2 2 3 3 7 8 7 4 3 6 1 0 5 2 6 3 1 27
9 11 11 11 10 11 12 11 11 12 12 14 16 19 22 26 18 5 2 5 7 18 13 7 3 7 1 2 3 4 5 9 5 4 4 4 3 6 4 4 4 4 5 19 28
11 11 11 11 11 11 12 12 12 13 14 14 16 18 23 19 2 2 4 7 11 12 9 3 2 2 2 2 4 4 9 5 5 5 3 3 3 5 7 5 9 16 14 21 26
11 11 12 13 14 15 15 15 16 15 16 16 17 19 19 7 3 4 5 9 13 7 3 3 2 1 2 5 4 5 7 6 5 6 6 6 5 5 9 8 4 8 19 21 22
11 12 14 14 14 14 15 16 17 17 17 16 14 15 9 4 5 3 7 9 9 7 1 2 2 2 4 3 4 6 4 6 5 7 4 6 6 5 8 8 5 8 20 22 22
12 13 13 13 13 13 15 18 20 20 18 15 11 11 3 4 3 4 8 13 9 4 1 4 4 3 4 4 4 3 11 12 7 6 5 7 4 6 2 2 2 11 17 19 22
12 13 12 13 13 15 17 21 23 20 18 13 7 5 2 8 4 10 13 11 11 4 2 6 4 3 1 4 4 5 8 4 8 6 6 4 4 7 2 3 6 9 11 13 16
11 11 11 12 14 17 19 24 24 13 9 6 4 1 6 6 10 13 10 9 5 5 7 7 3 3 3 4 9 5 6 11 6 8 2 7 14 5 4 8 8 8 8 8 11
11 11 10 12 14 17 21 27 11 6 7 5 5 2 8 5 7 7 6 4 4 3 3 2 3 3 2 4 6 4 13 12 4 7 5 6 4 4 3 6 9 8 9 9 10
11 11 11 13 15 19 21 19 7 3 5 4 1 1 5 3 8 14 3 4 2 2 2 2 1 2 1 5 11 8 8 5 16 6 2 6 3 2 2 4 7 8 7 10 12
10 10 11 13 16 18 20 5 7 3 2 4 3 5 7 15 7 2 2 3 3 2 3 4 4 11 11 10 11 4 5 11 5 7 6 9 6 8 5 3 6 8 10 11 13
10 10 10 13 16 11 9 6 3 3 7 6 6 6 12 5 5 3 5 3 2 4 2 1 12 14 12 12 13 19 14 12 2 3 4 6 10 5 7 6 8 10 10 9 6
11 11 11 12 12 7 6 5 5 2 2 7 5 4 5 4 4 5 7 2 5 3 5 8 13 8 12 13 12 16 14 10 8 4 2 5 4 6 6 10 7 7 7 7 9
12 12 12 13 2 8 3 1 14 4 4 5 3 3 3 3 4 5 6 3 1 4 2 7 7 13 8 13 14 12 11 9 7 6 5 1 3 4 6 9 8 10 8 8 7
13 12 12 10 6 1 3 9 4 2 4 8 4 2 6 3 5 2 2 2 1 10 4 8 4 6 11 7 11 8 3 6 2 2 2 1 2 4 1 5 10 9 7 7 5
12 12 11 6 7 1 9 7 3 4 3 6 4 6 7 3 3 6 2 3 1 6 3 9 2 1 2 2 2 9 6 7 1 2 3 4 4 4 5 5 0 3 7 7 4
13 12 11 7 3 5 9 1 4 4 4 7 4 6 3 4 6 3 2 3 3 8 10 7 4 4 3 4 4 3 5 0 2 3 3 0 4 9 3 2 2 5 8 4 1
16 13 6 5 7 8 1 4 0 1 3 3 4 6 4 6 3 5 4 3 3 3 4 7 5 7 6 3 1 1 7 3 3 4 3 2 5 4 0 2 3 1 4 1 0
15 7 2 6 3 2 4 3 4 4 2 5 6 3 5 3 1 6 2 3 3 4 4 6 6 5 2 3 1 2 6 5 4 2 1 1 5 4 1 2 2 3 3 2 2
11 4 4 2 3 2 4 4 3 2 3 1 2 1 3 5 6 4 4 2 4 2 5 7 4 3 5 1 1 4 5 2 3 1 1 2 4 4 2 6 5 4 4 3 4
5 2 6 3 3 4 2 5 4 5 3 4 3 3 5 4 2 3 4 3 3 5 0 7 3 6 5 3 2 2 1 5 4 2 1 3 3 4 2 5 9 6 4 4 6
2 2 1 4 3 1 2 3 3 5 1 4 3 5 4 2 3 3 3 4 2 0 4 2 2 1 6 6 3 3 1 3 3 3 2 1 4 1 2 3 8 8 6 6 7
2 2 3 1 1 2 4 3 3 3 3 4 3 2 2 3 3 4 3 4 2 3 3 3 1 1 3 3 2 2 0 3 4 2 5 3 4 1 3 1 7 10 8 8 9
2 2 3 3 1 2 2 3 4 3 3 3 4 4 5 3 2 4 3 3 5 0 3 2 2 3 3 2 2 3 3 3 3 2 4 5 5 5 3 2 5 6 8 10 9
3 2 1 2 2 0 2 1 2 4 3 5 1 5 2 4 5 3 3 5 4 5 3 3 2 3 6 6 3 3 4 5 6 3 5 1 4 5 4 4 8 8 9 10 10
4 3 1 1 1 1 1 3 2 3 2 4 1 7 2 4 4 5 4 3 5 5 4 3 2 4 3 3 3 4 6 3 4 4 5 3 6 5 3 3 5 8 10 11 10
3 3 3 1 2 2 3 3 2 1 4 4 1 4 7 4 4 10 8 6 4 3 2 2 2 4 4 4 4 3 3 3 2 3 4 4 4 2 2 3 4 6 9 9 9
Wind_Direction
342 347 349 337 337 342 338 338 333 335 338 336 337 336 332 334 330 356 17 81 15 351 348 327 318 306 217 243 177 140 201 217 212 185 219 147 185 187 26 130 195 176 155 62 152
340 344 334 334 335 337 331 332 328 325 329 330 331 331 331 338 335 354 26 106 316 345 356 12 18 347 231 228 199 196 211 211 202 212 205 158 191 164 175 155 212 166 72 135 150
337 334 331 331 331 331 335 334 324 326 323 325 325 327 332 334 1 53 42 351 332 341 347 331 317 12 241 221 204 196 233 206 222 205 169 142 165 209 152 225 214 196 155 155 160
330 333 335 340 338 337 334 332 329 325 322 322 324 330 342 345 60 193 346 336 341 347 359 43 11 144 253 226 227 239 225 202 224 196 166 180 146 201 199 209 321 217 161 159 171
338 340 341 343 340 340 338 334 328 321 317 317 324 341 356 357 251 202 313 333 351 0 354 127 144 228 207 234 247 240 250 226 219 186 206 150 197 205 225 236 328 158 163 173 179
342 342 343 340 341 340 336 330 323 315 307 303 312 343 13 345 274 274 303 321 337 350 234 184 198 213 281 265 237 286 221 236 220 208 211 199 165 157 214 200 130 164 189 181 181
342 342 343 340 338 338 336 330 322 314 303 290 291 347 323 235 275 291 305 306 306 272 234 229 256 174 84 281 344 271 266 261 214 198 211 181 207 204 134 152 178 199 195 193 187
342 341 339 335 336 338 337 334 333 332 333 252 205 188 249 272 295 303 314 321 304 291 239 259 181 243 194 292 328 230 225 235 199 163 199 197 235 200 144 151 157 162 178 181 196
344 338 334 332 336 338 339 333 338 354 15 104 147 174 273 287 294 310 296 292 303 296 262 356 148 227 191 228 281 256 229 225 236 207 140 190 216 160 147 171 165 178 178 199 204
343 336 330 329 337 338 341 337 340 350 38 103 126 298 265 290 292 309 309 270 289 37 107 138 152 218 209 190 226 245 224 213 215 186 183 176 220 186 130 190 189 199 196 212 215
343 337 330 330 339 341 355 7 8 355 2 249 238 249 292 318 301 307 279 146 157 185 193 204 195 223 216 209 220 243 270 208 197 190 161 197 191 200 197 227 216 218 211 213 217
341 332 328 335 341 2 25 68 103 281 314 273 253 263 273 278 320 257 180 166 165 237 189 216 233 226 213 221 225 239 263 234 105 154 189 173 224 215 200 221 222 221 216 204 191
341 331 330 339 341 5 55 82 355 294 268 294 218 245 269 161 276 279 163 156 214 238 213 224 245 226 212 226 220 231 232 261 206 134 72 135 249 222 226 230 226 227 222 223 216
342 337 336 343 62 356 65 359 336 180 27 294 321 268 179 220 276 227 208 188 282 307 302 260 274 235 227 227 207 216 201 219 152 160 183 293 244 236 220 230 214 213 213 220 220
344 340 343 343 320 69 337 331 356 150 37 318 292 173 311 169 304 297 182 73 91 273 250 256 268 216 236 218 202 232 125 133 29 84 137 99 207 262 187 243 240 207 199 192 175
348 336 339 343 320 218 344 349 134 42 325 333 325 337 352 2 308 308 51 32 11 298 221 276 284 305 190 99 321 147 83 44 73 144 217 212 209 246 201 213 198 213 192 178 172
341 328 317 316 333 286 335 72 29 113 355 314 317 346 333 302 315 343 320 16 47 354 347 330 343 321 17 98 40 73 127 352 160 189 211 6 191 248 195 197 230 223 190 183 193
334 325 325 333 313 304 328 46 236 261 267 323 325 307 335 355 297 324 358 335 153 96 360 358 325 5 355 24 119 130 118 193 154 171 182 112 212 250 299 315 302 106 143 135 0
334 335 42 359 24 99 73 39 228 211 291 333 319 2 322 332 311 9 343 287 226 194 59 348 321 320 341 322 180 154 126 230 108 66 178 201 268 257 112 89 89 116 120 109 89
335 339 13 15 80 15 77 236 271 271 337 43 287 208 295 301 355 29 325 293 332 4 142 207 303 2 299 301 97 199 157 144 21 223 238 290 276 255 210 209 179 181 165 122 105
344 42 12 78 1 53 168 233 288 268 219 199 242 279 248 278 242 293 270 302 27 321 130 155 191 336 354 12 320 24 53 57 98 96 62 340 286 209 222 208 188 187 169 141 118
54 359 333 3 35 23 165 206 289 286 316 276 248 217 238 272 275 276 272 217 59 328 332 115 208 160 256 265 287 285 184 125 123 182 86 305 284 105 301 260 181 174 157 130 120
87 251 3 37 236 298 295 281 254 305 312 319 293 217 212 274 296 222 284 278 34 41 41 347 243 333 212 321 346 311 93 96 94 90 179 176 261 103 28 166 178 159 151 136 129
80 349 333 46 86 160 309 277 299 284 248 306 279 32 351 305 230 299 294 305 339 76 71 154 282 241 244 252 171 257 193 156 132 144 177 230 290 321 344 156 164 154 155 149 148
53 249 185 302 346 211 305 279 282 308 337 346 59 87 355 295 314 281 306 315 312 350 61 93 272 218 275 261 235 255 252 167 188 191 203 275 212 275 304 240 188 171 150 154 161
141 142 9 128 340 157 206 262 237 310 226 291 340 326 193 231 234 282 343 250 258 335 16 3 284 352 277 319 274 262 275 240 203 202 255 266 282 229 41 66 146 164 164 173 178
151 119 111 252 105 114 228 241 200 295 269 244 27 341 309 259 251 247 227 245 257 327 300 41 39 15 276 344 297 320 275 202 221 200 164 185 249 21 50 91 138 175 183 180 171
Height
836 833 830 830 830 826 824 823 821 818 815 814 810 806 802 798 793 789 788 791 792 791 785 785 784 784 785 784 784 785 798 799 793 795 782 779 779 780 780 783 782 782 784 786 792
835 831 832 830 827 825 824 820 819 817 814 811 808 806 801 795 792 790 791 790 791 790 786 786 786 785 787 785 784 786 793 791 779 779 777 775 781 779 783 785 784 783 786 788 793
834 833 832 829 826 824 821 819 819 815 814 810 808 805 800 794 792 793 791 791 791 789 787 787 787 787 789 786 783 782 783 780 775 773 773 775 781 778 782 793 777 775 782 789 793
834 833 830 827 824 821 819 818 816 814 812 809 806 803 798 795 799 792 790 790 789 788 787 788 789 789 793 789 781 786 777 773 771 770 775 776 775 780 778 770 773 771 776 784 790
832 830 827 825 822 820 818 816 813 811 809 808 806 803 800 799 794 789 789 789 788 787 787 787 790 791 791 787 783 782 775 771 767 769 769 769 772 774 774 771 771 772 775 778 783
831 829 827 824 822 820 817 814 811 809 807 807 806 805 805 800 788 787 787 786 786 786 786 787 786 787 790 787 785 774 771 769 768 768 768 769 770 772 769 770 771 775 776 776 779
830 828 826 824 822 818 815 811 809 806 804 804 805 805 806 796 787 787 785 784 783 784 785 784 786 788 789 786 780 775 778 773 769 768 767 767 774 772 767 769 773 778 779 780 781
828 826 824 822 820 817 814 810 806 803 801 802 804 806 802 786 786 785 783 781 781 782 784 784 785 787 786 783 779 778 776 781 766 768 767 767 773 766 767 768 775 777 781 782 784
827 826 823 821 819 816 812 808 804 803 802 802 806 806 797 785 784 782 781 780 781 781 783 784 785 787 786 790 792 783 777 781 774 766 769 770 775 766 768 769 773 776 778 780 781
827 825 824 821 819 816 812 806 804 804 804 804 806 807 789 787 783 779 778 779 781 782 784 785 787 790 792 790 795 787 782 779 771 771 770 774 771 770 769 771 770 774 776 778 778
826 825 823 822 820 816 812 807 810 807 805 802 801 800 790 785 781 777 778 780 781 784 789 786 790 789 787 783 780 778 778 769 767 764 768 771 769 768 771 773 772 774 775 776 775
825 823 822 821 820 817 815 818 824 824 816 799 797 796 790 789 787 778 779 782 783 787 786 790 787 775 776 779 779 777 781 766 769 767 765 774 771 768 769 769 769 769 771 773 775
824 822 821 820 819 818 818 822 823 822 824 800 793 792 788 788 786 778 776 778 783 785 784 788 770 768 774 775 779 773 780 771 764 767 769 774 773 768 764 764 766 765 766 770 769
824 822 820 819 820 819 820 821 821 820 824 801 791 785 784 784 784 772 773 778 781 785 784 783 767 767 774 771 769 774 763 766 773 770 774 774 780 772 765 762 763 762 765 766 767
824 821 820 817 818 819 821 819 819 821 827 796 789 781 780 785 782 772 771 775 783 781 784 774 769 766 764 763 761 763 761 766 774 776 776 780 778 765 771 766 759 761 765 765 766
823 821 819 817 818 818 818 816 819 826 821 804 791 792 789 784 782 776 774 775 777 780 777 773 765 764 759 763 763 765 770 776 785 781 785 775 775 768 765 757 761 762 762 764 766
822 819 817 817 818 817 816 817 827 828 808 806 802 797 799 795 788 783 781 783 791 796 788 775 770 767 762 762 765 767 768 790 788 783 782 781 782 759 760 760 760 759 761 765 767
820 818 817 817 816 815 816 821 825 813 813 803 803 802 801 796 789 789 788 788 788 791 799 796 782 773 766 767 766 772 773 791 789 785 778 786 780 757 761 764 765 763 765 768 768
819 816 816 816 815 815 819 832 823 814 806 809 805 806 805 798 796 794 792 787 784 784 801 805 796 775 770 767 768 774 777 772 779 790 784 780 769 756 764 766 767 767 768 771 772
818 817 817 816 815 816 824 826 819 811 807 807 813 808 809 804 800 799 795 784 786 782 781 797 794 779 771 765 765 767 766 774 778 783 782 779 779 757 763 764 767 768 768 773 776
818 819 818 817 816 820 828 828 818 807 808 810 808 809 808 806 802 800 792 784 785 784 782 790 793 783 773 773 774 769 771 776 775 785 785 781 764 757 756 759 763 767 771 774 777
819 823 818 817 825 840 828 822 815 809 804 806 804 805 804 801 801 797 793 785 784 785 786 783 788 793 790 767 769 768 767 770 776 789 795 797 767 756 759 759 761 766 773 777 781
824 824 819 817 826 830 827 819 814 810 807 806 804 802 800 800 802 796 789 779 780 782 787 786 784 789 785 775 772 771 768 774 778 785 792 785 764 759 760 763 763 766 774 779 784
826 826 824 823 829 826 824 820 817 809 809 807 805 802 805 800 796 795 790 781 782 780 778 785 789 785 785 776 775 775 772 773 773 783 781 778 764 755 757 762 767 770 775 780 784
826 829 829 827 827 828 827 822 818 815 810 809 806 813 813 812 803 797 793 790 782 780 781 784 790 787 780 776 776 771 768 774 776 774 770 767 774 759 757 759 763 767 775 780 784
825 828 833 833 833 829 827 824 818 817 814 810 809 813 809 810 801 804 799 796 791 787 784 790 787 790 782 773 773 775 771 771 775 774 775 773 769 759 763 765 766 768 774 778 782
821 822 824 831 834 832 828 821 817 818 812 811 812 817 811 803 799 796 795 793 792 792 791 791 793 797 784 782 778 774 763 768 766 767 764 769 760 760 762 765 767 770 772 775 781